Home > Weather > Bucaramanga > Past weeks

Flag for Colombia Past Weather in Bucaramanga, Colombia — Yesterday and Last 2 Weeks

Now
73 °F

Scattered showers. Scattered clouds.


Feels Like: 73 °F
Forecast: 68 / 84 °F
Wind: 6 mph from Northwest

Location: Bucaramanga / Palonegro

Current Time: Jul 28, 2016 at 7:13:39 PM

Latest Report: Jul 28, 2016 at 6:00 PM


Visibility: N/A

Pressure: 29.93 "Hg (26.80 "Hg at 956m altitude)

Humidity: 83%

Dew Point: 68 °F

Location of BucaramangaLocation

Past Weather in Bucaramanga — Graph

°F

Bucaramanga Temperature Yesterday

Maximum temperature yesterday: 81 °F (at 3:00 PM)
Minimum temperature yesterday: 63 °F (at 5:00 PM)
Average temperature yesterday: 71 °F

High & Low Weather Summary for the Past Weeks

 TemperatureHumidityPressure
High82 °F (Jul 26, 12:00 PM)100% (Jul 14, 10:00 PM)30.09 "Hg (Jul 14, 10:00 PM)
Low63 °F (Jul 27, 5:00 PM)58% (Jul 14, 11:00 AM)29.89 "Hg (Jul 26, 3:00 PM)
Average72 °F82%30.01 "Hg
* Reported Jul 13 6:00 PM — Jul 28 6:00 PM, Bucaramanga, Weather by CustomWeather, © 2016

Note: Actual official high and low records may vary slightly from our data, if they occured in-between our weather recording intervals... More about our weather records

Advertising

Bucaramanga Weather History for the Previous 24 Hours

Scroll right to see more
 ConditionsComfort  
Time TempWeatherWind HumidityBarometerVisibility
6:00 PM
Thu, Jul 28
73 °FScattered showers. Scattered clouds.6 mph83%29.93 "HgN/A
5:00 PM75 °FScattered clouds.8 mph74%29.91 "HgN/A
4:00 PM77 °FPartly sunny.10 mph65%29.90 "HgN/A
3:00 PM79 °FPartly sunny.9 mph70%29.92 "HgN/A
2:00 PM77 °FScattered clouds.5 mph74%29.93 "HgN/A
1:00 PM77 °FPartly sunny.5 mph61%29.96 "HgN/A
12:00 PM75 °FPartly sunny.5 mph69%29.98 "HgN/A
11:00 AM73 °FPartly sunny.5 mph65%30.00 "HgN/A
10:00 AM70 °FPartly sunny.8 mph73%30.01 "HgN/A
9:00 AM68 °FPartly sunny.7 mph83%30.01 "HgN/A
8:00 AM68 °FPartly sunny.9 mph78%30.02 "HgN/A
7:00 AM64 °FPartly sunny.13 mph94%30.01 "HgN/A
6:00 AM64 °FPartly sunny.13 mph88%29.99 "HgN/A
5:30 AM64 °FPassing clouds.10 mph88%29.98 "HgN/A
5:00 AM64 °FPassing clouds.8 mph94%29.98 "HgN/A
12:00 AM68 °FPassing clouds.3 mph78%30.00 "HgN/A
11:00 PM
Wed, Jul 27
66 °FPassing clouds.5 mph83%30.01 "HgN/A
10:00 PM64 °FPassing clouds.9 mph94%30.00 "HgN/A
9:00 PM66 °FPassing clouds.12 mph88%29.97 "HgN/A
8:00 PM66 °FPartly cloudy.6 mph83%29.96 "HgN/A
7:00 PM64 °FScattered showers. Partly cloudy.No wind100%29.94 "HgN/A
Weather by CustomWeather, © 2016

See weather overviewHow to use our weather pages